Lapse_Rate
5.6 5.5 5.6 5.8 5.9 6.0 6.0 5.9 6.0 6.2 6.3 6.2 6.1 6.0 6.0 6.2 6.1 6.1 6.3 6.4 6.4 6.4
5.6 5.4 5.8 5.9 6.1 6.1 6.2 6.5 6.1 6.2 6.1 6.0 5.8 6.0 6.0 6.1 6.2 6.2 6.3 6.3 6.5 6.3
5.9 5.6 5.6 5.7 6.2 6.0 6.0 5.9 6.3 6.2 6.1 6.1 5.9 5.9 5.8 5.9 6.1 6.3 6.2 6.2 6.4 6.2
6.4 6.2 6.0 6.0 6.0 6.1 5.8 5.9 6.1 6.0 5.9 6.1 5.9 6.0 5.9 5.9 5.8 6.1 6.2 6.0 6.2 6.3
6.5 6.4 6.4 6.2 6.3 5.9 6.1 5.9 6.0 6.2 6.2 6.0 5.9 5.9 5.9 5.9 5.7 5.8 6.0 6.0 6.1 5.9
6.8 6.7 6.6 6.5 6.4 6.1 6.1 6.2 6.0 6.0 6.3 6.1 6.1 5.9 5.7 5.7 5.9 5.9 5.8 5.8 5.8 5.9
6.8 6.9 6.8 6.7 6.5 6.4 6.3 6.4 6.5 6.3 6.3 6.5 6.4 6.2 6.1 6.1 6.1 6.0 6.0 5.8 5.8 5.8
6.4 6.7 6.7 6.8 6.8 6.6 6.5 6.6 6.7 6.6 6.5 6.5 6.5 6.5 6.4 6.2 6.2 6.1 6.0 6.0 5.9 5.8
6.5 6.3 6.4 6.6 6.7 6.7 6.6 6.5 6.4 6.4 6.5 6.4 6.5 6.6 6.4 6.3 6.3 6.3 6.0 5.9 5.9 6.0
6.4 6.4 6.5 6.4 6.4 6.7 6.6 6.4 6.3 6.3 6.3 6.1 6.1 6.0 6.0 6.0 6.0 5.9 5.9 6.0 5.8 5.8
6.4 6.4 6.4 6.4 6.6 6.6 6.4 6.3 6.1 6.1 6.3 6.4 6.2 5.8 5.9 5.8 6.0 6.1 6.0 6.0 6.0 6.0
6.3 6.4 6.5 6.3 6.2 6.3 6.3 6.1 6.0 6.2 6.1 6.1 6.2 6.2 5.7 6.0 6.0 6.1 6.2 6.2 6.1 6.1
6.7 6.5 6.6 6.6 6.5 6.4 6.0 5.8 6.0 6.5 6.6 6.2 6.1 5.8 5.7 6.1 6.0 5.9 6.0 6.1 6.2 6.2
6.5 6.3 6.4 6.3 6.0 5.9 6.3 6.1 5.9 5.9 6.1 6.0 5.8 5.6 6.1 6.1 6.1 6.0 5.9 6.2 6.1 6.1
Wind_Speed
8 5 4 5 3 3 3 3 3 4 4 5 5 4 3 2 2 2 2 4 3 1
9 8 7 6 3 3 3 3 4 4 5 4 4 5 3 3 4 2 2 3 4 3
10 9 8 5 6 6 4 3 4 5 4 4 4 4 4 3 3 3 3 2 3 3
10 10 8 7 6 6 5 5 5 4 5 4 4 4 4 4 4 4 3 3 3 4
10 10 10 9 8 6 6 5 6 5 4 5 5 4 5 6 4 5 5 5 4 5
10 12 13 12 10 9 8 7 6 5 5 6 6 5 6 6 6 6 6 5 5 4
13 13 13 12 11 11 10 9 8 7 7 7 6 7 7 7 7 7 6 6 6 6
12 11 11 10 11 11 10 10 9 8 7 7 6 7 7 7 7 7 7 7 7 7
9 10 11 10 10 9 9 9 8 8 8 8 7 10 13 10 8 7 8 8 8 7
9 11 11 9 9 10 9 8 9 8 6 7 8 10 14 14 8 8 8 8 7 7
11 10 7 8 9 8 7 10 8 7 8 5 4 11 14 14 9 8 9 8 7 7
13 12 10 11 11 9 10 9 9 9 8 6 5 7 14 9 8 8 9 6 7 8
12 12 13 14 12 9 9 10 8 8 8 12 11 8 8 11 6 7 5 4 5 7
12 14 15 13 11 11 9 6 8 8 7 6 8 6 7 12 5 4 3 4 4 5
Wind_Direction
190 192 209 208 208 220 210 213 192 202 194 215 221 230 220 232 237 210 246 268 241 209
191 190 209 205 201 231 225 228 227 209 199 221 217 211 198 221 240 206 241 267 270 219
190 193 208 186 198 219 235 235 233 218 218 215 221 216 197 223 222 229 235 255 256 239
186 187 203 204 201 206 194 209 226 227 222 226 227 200 219 226 233 229 253 253 235 263
191 185 195 210 196 204 210 204 215 210 227 222 231 200 217 228 220 221 228 241 240 260
193 193 203 204 199 192 213 206 211 200 215 219 226 207 218 229 227 220 220 229 235 253
204 204 205 202 204 196 204 210 209 212 212 214 224 213 211 218 225 233 232 225 225 235
203 207 208 202 203 206 199 215 214 213 213 211 213 228 221 217 220 222 232 238 231 237
191 195 203 207 207 208 202 207 204 213 212 212 222 217 214 210 220 224 226 240 246 237
202 197 204 202 195 208 207 187 203 212 210 223 232 224 219 218 222 222 228 227 229 246
195 208 202 204 202 201 202 198 191 176 181 188 223 244 249 231 218 222 228 229 231 229
199 201 201 219 216 204 202 204 194 193 184 179 240 225 232 233 228 230 236 230 231 235
196 207 205 209 218 215 207 206 196 200 182 181 213 226 217 205 213 213 227 245 262 245
196 198 210 208 208 199 188 201 200 203 192 189 181 180 206 209 197 194 209 233 266 278